FW6870 Weather Reports


Display with metric or nautical units.
time (UTC)temp
F
wind
direction
speed
MPH
gust
MPH
rain 1hr
in
rain 24hr
in
rain mn
in
humidity
%
barometer
mb
20260505193026 76 262 6.0 17.0 0.00 0.00 0.00 43 1015.3
20260505191528 76 182 9.0 17.0 0.00 0.00 0.00 43 1015.5
20260505190036 75 193 7.0 17.0 0.00 0.00 0.00 41 1015.8
20260505184534 75 206 12.0 22.0 0.00 0.00 0.00 42 1016.0
20260505183031 75 248 10.0 14.0 0.00 0.00 0.00 45 1016.2
20260505181531 75 255 5.0 13.0 0.00 0.00 0.00 47 1016.2
20260505180040 73 252 7.0 19.0 0.00 0.00 0.00 46 1016.4
20260505174532 73 235 8.0 20.0 0.00 0.00 0.00 45 1016.7
20260505173030 73 214 9.0 22.0 0.00 0.00 0.00 45 1017.0
20260505171530 73 182 7.0 20.0 0.00 0.00 0.00 46 1017.1
20260505170028 72 202 9.0 17.0 0.00 0.00 0.00 49 1017.1
20260505164529 72 184 5.0 14.0 0.00 0.00 0.00 51 1017.1
20260505163028 72 217 3.0 11.0 0.00 0.00 0.00 53 1017.2
20260505161528 70 226 6.0 14.0 0.00 0.00 0.00 54 1017.4
20260505153031 68 223 4.0 9.0 0.00 0.00 0.00 59 1017.6
20260505151533 68 218 2.0 5.0 0.00 0.00 0.00 61 1017.8
20260505124541 58 256 3.0 7.0 0.00 0.00 0.00 72 1017.0
20260505123026 57 192 3.0 8.0 0.00 0.00 0.00 74 1017.1
20260505121554 56 207 3.0 9.0 0.00 0.00 0.00 73 1016.9
20260505120030 56 188 4.0 6.0 0.00 0.00 0.00 71 1016.6
20260505114528 56 209 2.0 5.0 0.00 0.00 0.00 71 1016.3
20260505113031 55 195 3.0 7.0 0.00 0.00 0.00 70 1016.2
20260505111535 55 197 5.0 7.0 0.00 0.00 0.00 69 1016.2
20260505093032 56 224 6.0 11.0 0.00 0.00 0.00 67 1016.0
20260505091534 57 229 6.0 12.0 0.00 0.00 0.00 67 1015.8
20260505090029 56 239 6.0 10.0 0.00 0.00 0.00 69 1015.8
20260505084526 56 263 5.0 10.0 0.00 0.00 0.00 70 1015.7
20260505083041 57 231 6.0 10.0 0.00 0.00 0.00 70 1015.8
20260505081531 58 244 7.0 11.0 0.00 0.00 0.00 66 1015.5
20260505080042 59 269 8.0 11.0 0.00 0.00 0.00 65 1015.4
20260505074529 59 273 7.0 9.0 0.00 0.00 0.00 65 1015.3
20260505073027 59 261 8.0 10.0 0.00 0.00 0.00 65 1015.3
20260505071537 59 277 6.0 9.0 0.00 0.00 0.00 65 1015.4
20260505070030 60 311 5.0 8.0 0.00 0.00 0.00 64 1015.4
20260505064530 60 288 5.0 10.0 0.00 0.00 0.00 64 1015.7
20260505063042 60 281 7.0 10.0 0.00 0.00 0.00 63 1015.6
20260505061533 60 263 8.0 11.0 0.00 0.00 0.00 62 1015.6
20260505060026 61 272 8.0 11.0 0.00 0.00 0.00 61 1015.8
20260505054538 61 258 7.0 10.0 0.00 0.00 0.00 60 1015.7
20260505053028 62 255 8.0 11.0 0.00 0.00 0.00 58 1015.8
20260505051537 63 240 7.0 12.0 0.00 0.00 0.00 56 1015.8
20260505041542 64 214 8.0 13.0 0.00 0.00 0.00 54 1015.9
20260505040027 65 214 8.0 11.0 0.00 0.00 0.00 53 1015.9
20260505034530 65 219 8.0 12.0 0.00 0.00 0.00 52 1016.0
20260505033028 65 216 7.0 11.0 0.00 0.00 0.00 52 1016.0
20260505031531 66 221 7.0 11.0 0.00 0.00 0.00 52 1016.0
20260505030028 66 221 7.0 13.0 0.00 0.00 0.00 52 1016.0
20260505024527 66 225 8.0 12.0 0.00 0.00 0.00 51 1015.9
20260505023027 67 221 7.0 12.0 0.00 0.00 0.00 51 1016.0
20260505021527 67 212 8.0 15.0 0.00 0.00 0.00 50 1015.7
20260505020038 67 228 7.0 12.0 0.00 0.00 0.00 50 1015.7
20260505014526 68 229 9.0 14.0 0.00 0.00 0.00 49 1015.6
20260505013029 68 229 8.0 14.0 0.00 0.00 0.00 48 1015.5
20260505011528 69 222 8.0 14.0 0.00 0.00 0.00 48 1015.3
20260505010028 70 208 7.0 10.0 0.00 0.00 0.00 48 1015.1
20260505004528 70 218 7.0 9.0 0.00 0.00 0.00 47 1015.1
20260505003030 70 219 5.0 9.0 0.00 0.00 0.00 47 1015.0
20260505001528 71 220 6.0 11.0 0.00 0.00 0.00 46 1015.1
20260505000031 71 221 7.0 11.0 0.00 0.00 0.00 45 1015.1
20260504234526 72 237 4.0 6.0 0.00 0.00 0.00 45 1014.9
20260504233028 72 218 5.0 8.0 0.00 0.00 0.00 45 1014.9
20260504231529 73 217 4.0 7.0 0.00 0.00 0.00 45 1014.7
20260504230025 73 234 4.0 10.0 0.00 0.00 0.00 44 1014.7
20260504224534 74 227 5.0 10.0 0.00 0.00 0.00 44 1014.7
20260504223031 74 223 5.0 11.0 0.00 0.00 0.00 44 1014.7
20260504221526 74 227 5.0 11.0 0.00 0.00 0.00 43 1014.8
20260504220028 74 221 5.0 14.0 0.00 0.00 0.00 43 1014.8
20260504214537 74 235 3.0 9.0 0.00 0.00 0.00 45 1014.8
20260504213029 74 223 6.0 11.0 0.00 0.00 0.00 41 1014.9
20260504211529 74 209 8.0 12.0 0.00 0.00 0.00 40 1014.8
20260504210029 74 223 7.0 12.0 0.00 0.00 0.00 40 1014.7
20260504204527 74 219 8.0 14.0 0.00 0.00 0.00 40 1014.9
20260504203031 74 166 8.0 15.0 0.00 0.00 0.00 39 1015.0
20260504201527 74 235 6.0 12.0 0.00 0.00 0.00 41 1015.1
20260504200038 75 246 4.0 12.0 0.00 0.00 0.00 39 1015.1
20260504194528 74 221 8.0 14.0 0.00 0.00 0.00 38 1015.3